DW3478 Weather Reports


Display with metric or nautical units.
time (UTC)temp
F
wind
direction
speed
MPH
gust
MPH
rain 1hr
in
rain 24hr
in
rain mn
in
humidity
%
barometer
mb
20260906095306 74 150 5.0 7.0 0.00 0.00 0.00 73 1023.0
20260906094805 75 167 2.0 7.0 0.00 0.00 0.00 70 1023.0
20260906094305 76 102 3.0 7.0 0.00 0.00 0.00 67 1023.0
20260906093805 77 34 5.0 20.0 0.00 0.00 0.00 56 1023.0
20260906093305 76 28 6.0 14.0 0.00 0.00 0.00 56 1023.0
20260906092805 76 53 8.0 16.0 0.00 0.00 0.00 57 1023.0
20260906092306 76 64 7.0 14.0 0.00 0.00 0.00 56 1023.0
20260906091805 76 66 5.0 12.0 0.00 0.00 0.00 57 1023.0
20260906090305 75 38 6.0 17.0 0.00 0.00 0.00 60 1023.0
20260906085805 74 46 6.0 13.0 0.00 0.00 0.00 60 1023.0
20260906083805 74 38 6.0 12.0 0.00 0.00 0.00 60 1022.0
20260906083305 74 45 5.0 13.0 0.00 0.00 0.00 61 1022.0
20260906081805 73 74 4.0 20.0 0.00 0.00 0.00 63 1022.0
20260906081306 72 40 6.0 16.0 0.00 0.00 0.00 64 1022.0
20260906075805 71 59 4.0 13.0 0.00 0.00 0.00 65 1022.0
20260906075306 71 27 5.0 12.0 0.00 0.00 0.00 65 1022.0
20260906074806 70 56 4.0 9.0 0.00 0.00 0.00 67 1022.0
20260906072805 69 68 3.0 9.0 0.00 0.00 0.00 70 1022.0
20260906072306 69 39 2.0 7.0 0.00 0.00 0.00 70 1022.0
20260906063805 69 117 9.0 15.0 0.00 0.00 0.00 73 1022.0
20260906063305 69 55 5.0 12.0 0.00 0.00 0.00 74 1022.0
20260906062805 69 35 7.0 16.0 0.00 0.00 0.00 74 1022.0
20260906062306 69 52 4.0 12.0 0.00 0.00 0.00 75 1022.0
20260906061806 69 40 3.0 10.0 0.00 0.00 0.00 76 1022.0
20260906060305 69 36 3.0 7.0 0.00 0.00 0.00 77 1022.0
20260906055809 68 158 3.0 7.0 0.00 0.00 0.00 76 1022.0
20260906055306 68 51 3.0 6.0 0.00 0.00 0.00 77 1022.0
20260906054805 69 34 2.0 3.0 0.00 0.00 0.00 78 1022.0
20260906054305 68 112 3.0 6.0 0.00 0.00 0.00 77 1022.0
20260906053805 69 73 1.0 3.0 0.00 0.00 0.00 78 1021.0
20260906053305 69 31 1.0 3.0 0.00 0.00 0.00 78 1021.0
20260906035306 69 84 7.0 13.0 0.00 0.00 0.00 69 1022.0
20260906031305 69 63 5.0 12.0 0.00 0.00 0.00 70 1022.0
20260906024805 69 56 3.0 12.0 0.00 0.00 0.00 71 1022.0
20260906024305 69 55 5.0 12.0 0.00 0.00 0.00 71 1022.0
20260906020305 68 30 1.0 6.0 0.00 0.00 0.00 72 1022.0
20260906015804 68 62 2.0 8.0 0.00 0.00 0.00 73 1022.0
20260906015306 68 69 3.0 5.0 0.00 0.00 0.00 72 1022.0
20260906014805 68 23 1.0 3.0 0.00 0.00 0.00 72 1022.0
20260906014305 68 31 1.0 5.0 0.00 0.00 0.00 73 1022.0
20260906013805 68 27 2.0 3.0 0.00 0.00 0.00 73 1022.0
20260906011305 70 91 0.0 3.0 0.00 0.00 0.00 79 1022.0
20260906010804 69 114 2.0 3.0 0.00 0.00 0.00 78 1022.0
20260906010305 69 65 1.0 3.0 0.00 0.00 0.00 76 1022.0
20260906005805 69 76 1.0 3.0 0.00 0.00 0.00 74 1022.0
20260906004305 69 30 3.0 12.0 0.00 0.00 0.00 74 1022.0
20260906003805 69 58 2.0 3.0 0.00 0.00 0.00 77 1023.0
20260906003304 69 61 2.0 3.0 0.00 0.00 0.00 76 1023.0
20260906002805 69 42 2.0 3.0 0.00 0.00 0.00 73 1023.0
20260906002306 68 30 1.0 3.0 0.00 0.00 0.00 72 1023.0
20260905234305 68 24 1.0 2.0 0.00 0.00 0.00 81 1023.0
20260905233804 69 25 1.0 2.0 0.00 0.00 0.00 82 1023.0
20260905233304 69 22 2.0 3.0 0.00 0.00 0.00 82 1023.0
20260905232306 69 24 0.0 1.0 0.00 0.00 0.00 81 1023.0
20260905231805 69 30 0.0 2.0 0.00 0.00 0.00 81 1023.0
20260905231304 69 33 2.0 3.0 0.00 0.00 0.00 80 1023.0
20260905230804 69 35 2.0 3.0 0.00 0.00 0.00 81 1023.0
20260905230305 69 17 2.0 3.0 0.00 0.00 0.00 81 1023.0
20260905225805 69 35 2.0 3.0 0.00 0.00 0.00 80 1023.0
20260905225306 69 35 2.0 3.0 0.00 0.00 0.00 80 1023.0
20260905224305 69 40 2.0 3.0 0.00 0.00 0.00 79 1023.0
20260905222306 70 44 0.0 1.0 0.00 0.00 0.00 78 1022.0
20260905221804 70 339 0.0 3.0 0.00 0.00 0.00 78 1022.0
20260905221304 70 30 0.0 2.0 0.00 0.00 0.00 76 1022.0
20260905220805 70 36 2.0 3.0 0.00 0.00 0.00 77 1022.0
20260905215804 70 98 1.0 2.0 0.00 0.00 0.00 75 1022.0
20260905215306 70 83 1.0 3.0 0.00 0.00 0.00 74 1022.0
20260905214804 70 59 2.0 3.0 0.00 0.00 0.00 71 1022.0
20260905214305 70 81 2.0 3.0 0.00 0.00 0.00 68 1022.0
20260905213804 70 73 2.0 5.0 0.00 0.00 0.00 69 1022.0
20260905213305 70 39 2.0 6.0 0.00 0.00 0.00 69 1022.0
20260905212306 70 33 3.0 8.0 0.00 0.00 0.00 70 1022.0
20260905211805 70 31 2.0 3.0 0.00 0.00 0.00 72 1022.0
20260905211305 71 36 1.0 5.0 0.00 0.00 0.00 75 1022.0
20260905205306 72 250 0.0 1.0 0.00 0.00 0.00 82 1022.0
20260905202804 72 243 0.0 2.0 0.00 0.00 0.00 81 1021.0
20260905202306 72 243 1.0 3.0 0.00 0.00 0.00 81 1021.0
20260905195804 73 234 1.0 2.0 0.00 0.00 0.00 79 1021.0
20260905195306 73 229 1.0 2.0 0.00 0.00 0.00 79 1021.0
20260905194804 73 257 0.0 3.0 0.00 0.00 0.00 79 1021.0
20260905194304 73 252 1.0 2.0 0.00 0.00 0.00 79 1021.0
20260905193804 73 168 0.0 1.0 0.00 0.00 0.00 79 1021.0
20260905193305 73 168 1.0 2.0 0.00 0.00 0.00 79 1021.0
20260905192804 73 168 1.0 2.0 0.00 0.00 0.00 79 1021.0
20260905192306 73 168 0.0 2.0 0.00 0.00 0.00 79 1021.0
20260905191805 73 178 0.0 1.0 0.00 0.00 0.00 79 1021.0
20260905191304 73 181 0.0 3.0 0.00 0.00 0.00 79 1021.0
20260905185804 73 188 2.0 3.0 0.00 0.00 0.00 79 1021.0
20260905185306 73 122 2.0 3.0 0.00 0.00 0.00 79 1021.0
20260905183804 73 192 2.0 3.0 0.00 0.00 0.00 79 1021.0
20260905183304 73 194 2.0 3.0 0.00 0.00 0.00 78 1021.0
20260905172305 73 248 3.0 5.0 0.00 0.00 0.00 78 1020.0
20260905171804 74 219 3.0 6.0 0.00 0.00 0.00 78 1020.0
20260905171304 74 247 3.0 3.0 0.00 0.00 0.00 78 1020.0
20260905164804 74 237 2.0 3.0 0.00 0.00 0.00 78 1020.0
20260905164305 75 243 3.0 3.0 0.00 0.00 0.00 76 1020.0
20260905163804 74 254 2.0 3.0 0.00 0.00 0.00 77 1021.0
20260905163304 74 258 3.0 5.0 0.00 0.00 0.00 78 1021.0
20260905162805 74 252 3.0 5.0 0.00 0.00 0.00 77 1021.0
20260905162306 74 231 3.0 5.0 0.00 0.00 0.00 77 1021.0
20260905154305 76 203 5.0 9.0 0.00 0.00 0.00 72 1021.0
20260905153304 76 227 3.0 6.0 0.00 0.00 0.00 73 1021.0
20260905145307 76 198 5.0 7.0 0.00 0.00 0.00 73 1021.0
20260905144805 75 217 3.0 8.0 0.00 0.00 0.00 75 1021.0
20260905144305 76 232 5.0 7.0 0.00 0.00 0.00 73 1021.0
20260905143806 76 189 5.0 9.0 0.00 0.00 0.00 74 1021.0
20260905143305 75 223 5.0 7.0 0.00 0.00 0.00 75 1021.0
20260905142806 75 205 3.0 7.0 0.00 0.00 0.00 73 1021.0
20260905141305 78 201 4.0 7.0 0.00 0.00 0.00 70 1021.0
20260905140806 78 188 4.0 7.0 0.00 0.00 0.00 69 1021.0
20260905135307 77 198 4.0 9.0 0.00 0.00 0.00 67 1021.0
20260905134805 76 189 5.0 7.0 0.00 0.00 0.00 72 1021.0
20260905134306 75 226 4.0 6.0 0.00 0.00 0.00 71 1021.0
20260905131805 77 206 5.0 9.0 0.00 0.00 0.00 69 1021.0
20260905131305 77 205 3.0 7.0 0.00 0.00 0.00 71 1021.0
20260905130305 77 197 4.0 7.0 0.00 0.00 0.00 69 1021.0
20260905125805 76 195 4.0 12.0 0.00 0.00 0.00 72 1021.0
20260905125306 76 216 5.0 10.0 0.00 0.00 0.00 72 1021.0
20260905123306 76 228 5.0 9.0 0.00 0.00 0.00 72 1021.0
20260905121805 76 237 5.0 9.0 0.00 0.00 0.00 73 1021.0
20260905121305 76 220 4.0 6.0 0.00 0.00 0.00 73 1021.0
20260905120305 75 215 4.0 7.0 0.00 0.00 0.00 74 1021.0
20260905114305 75 195 3.0 7.0 0.00 0.00 0.00 72 1021.0
20260905113806 77 182 3.0 6.0 0.00 0.00 0.00 72 1021.0
20260905112805 75 255 3.0 7.0 0.00 0.00 0.00 73 1021.0
20260905112306 76 257 2.0 6.0 0.00 0.00 0.00 74 1021.0
20260905111805 73 238 2.0 3.0 0.00 0.00 0.00 78 1021.0
20260905111305 72 232 3.0 5.0 0.00 0.00 0.00 78 1021.0
20260905110805 73 235 2.0 6.0 0.00 0.00 0.00 78 1021.0
20260905110305 73 185 2.0 5.0 0.00 0.00 0.00 77 1021.0
20260905105306 73 213 3.0 5.0 0.00 0.00 0.00 76 1021.0
20260905104805 74 235 4.0 6.0 0.00 0.00 0.00 75 1021.0
20260905104306 73 201 2.0 5.0 0.00 0.00 0.00 77 1021.0
20260905101805 73 234 3.0 5.0 0.00 0.00 0.00 76 1021.0
20260905101305 73 241 3.0 6.0 0.00 0.00 0.00 77 1021.0
20260905100805 72 246 2.0 5.0 0.00 0.00 0.00 78 1021.0
20260905100305 72 248 2.0 5.0 0.00 0.00 0.00 79 1021.0